Terminal Aerodrome Forecast
Issued by NWS St Louis, MO

Home | Current Version | Previous Version | Text Only | Print | Product List | Glossary On
Versions: 1 2 3 4 5 6 7 8 9 10 11 12 13 14 15 16 17 18 19 20 21 22 23 24 25 26
000
FTUS43 KLSX 151900 AAA
TAFSTL
TAF AMD
KSTL 151954Z 1520/1624 27008KT P6SM SCT020 BKN030
      TEMPO 1520/1521 -DZ
     FM152200 30011KT P6SM BKN015
     FM160200 35006KT P6SM BKN008
     FM161500 01005KT P6SM SCT025=

USA.gov is the U.S. government's official web portal to all federal, state and local government web resources and services.